Location: Peterborough
(44.3091°N, 78.3197°W)
Time: 13:07:02
(UTC-04:00)

SR - Pass Details

Date: 31 March 2023
Orbit: 581 x 867 km, 66.7° (Epoch: 02 June)

Event Time Altitude Azimuth Distance (km) Brightness Sun altitude
Exits shadow 02:30:55 11° 26° (NNE) 1,880 ? -38.9°
Drops below altitude 10° 02:31:03 10° 26° (NNE) 1,932 ? -38.9°
Sets 02:33:16 0° 30° (NNE) 2,821 ? -38.7°
